Seattle Tacoma International Airport
KSEA : rendu visible

Aérodrome :











RETROUVEZ-NOUS SUR...

 
LOGIN :

S'inscrire | Disclaimer

   EN    FR    IT 

 









Légende :    VFR   VFR Marginal   IFR   IFR Intensif   IFR Très Intensif
Visi : 
Plafond : 
>= 8 km
>= 3000ft
5 à 8 km
1000 à 3000 ft
1500m à 5 km
500 à 1000 ft
800 à 1500m
200 à 500 ft
< 800m
< 200 ft
Symboles :   Orages  Brouillard  Fortes neiges  Fortes précipitations  Vent > 20 kt






- Altitude de l'aérodrome : 433 ft
- Code IATA : SEA


KSEA - Seattle Tacoma International

DERNIER METAR :
  • 080953Z 36004KT 10SM CLR 06/03 A3028 RMK AO2 SLP260 T00610028

METARs EXPIRÉS :
  • 080853Z 01006KT 10SM CLR 07/02 A3027 RMK AO2 SLP259 T00670022 51003
  • 080753Z 02006KT 10SM CLR 08/02 A3027 RMK AO2 SLP258 T00780017 401330044

TAF KSEA
Valide du 08 à 09h jusqu'au 09 à 12h UTC


080900Z 0809/0912 01006KT P6SM SKC
FM082100 36010KT P6SM SCT200



MET'MAP, la Météo Aéronautique d'un coup d'oeil ! - Copyright ORBIFLY Décembre 2007 - Disclaimer

ORBIFLY MET'MAP TEAM :

Programmation & Développement : Alexandra Zaïnal
Sur une idée originale de : Baudouin d'Aumeries
Assistance à la programmation : Marc-Olivier Méhu
Soutien technique & logistique : Manuel Goepfert

Contact : metmap@orbifly.com




SOURCES & CREDITS :

   NOAA       Earth
Advisory